Stanton, MN

7:39 PM CDT on August 17, 2017 (GMT -0500)
Stanton

Weather History for KSYN - April, 2013

Change the Weather History Date:

Saturday, April 20, 2013

  Actual Average (KLVN) Record (KLVN)
Temperature  
Mean Temperature 32 °F -  
Max Temperature 41 °F 60 °F 82 °F (1980)
Min Temperature 23 °F 40 °F 17 °F (2013)
Degree Days  
Heating Degree Days 34    
Moisture  
Dew Point 17 °F    
Average Humidity 53    
Maximum Humidity 78    
Minimum Humidity 31    
Precipitation  
Precipitation 0.00 in - - ()
Sea Level Pressure  
Sea Level Pressure 30.21 in    
Wind  
Wind Speed 5 mph (NNW)    
Max Wind Speed 9 mph    
Max Gust Speed -    
Visibility 10 miles    
Events      
Averages and records for this station are not official NWS values.
T = Trace of Precipitation, MM = Missing Value Source: NWS Daily Summary

Daily Weather History Graph

Daily Weather History Graph

Search for Another Location

Airport or City:

Trip Planner

Search our weather history database for the weather conditions in past years. The results will help you decide how hot, cold, wet, or windy it might be!

Date:

Astronomy

Apr. 20, 2013 Rise Set
Actual Time 6:19 AM CDT 8:03 PM CDT
Civil Twilight 5:48 AM CDT 8:34 PM CDT
Nautical Twilight 5:10 AM CDT 9:11 PM CDT
Astronomical Twilight 4:30 AM CDT 9:52 PM CDT
Moon 2:35 PM CDT (4/20) 3:21 AM CDT (4/20)
Length of Visible Light 14h 45m
Length of Day
13h 44m
Waxing Gibbous, 71% of the Moon is Illuminated
Apr 20
Waxing Gibbous
Apr 25
Full
May 2
Last Quarter
May 9
New
May 17
First Quarter

Hourly Weather History & Observations

Time (CDT) Temp. Windchill Dew Point Humidity Pressure Visibility Wind Dir Wind Speed Gust Speed Precip Events Conditions
2:57 AM 27.5 °F 20.2 °F 18.3 °F 68% 30.03 in 10.0 mi NW 6.9 mph - N/A   Clear
3:13 AM 27.3 °F 18.4 °F 18.1 °F 68% 30.03 in 10.0 mi NW 9.2 mph - N/A   Clear
3:33 AM 27.0 °F 18.7 °F 18.5 °F 70% 30.04 in 10.0 mi WNW 8.1 mph - N/A   Clear
3:53 AM 26.6 °F 19.1 °F 18.7 °F 72% 30.05 in 10.0 mi WNW 6.9 mph - N/A   Clear
4:13 AM 26.4 °F 17.3 °F 19.0 °F 74% 30.06 in 10.0 mi NW 9.2 mph - N/A   Clear
4:33 AM 26.2 °F 17.8 °F 19.0 °F 74% 30.07 in 10.0 mi WNW 8.1 mph - N/A   Clear
4:53 AM 26.2 °F 17.8 °F 18.5 °F 73% 30.08 in 10.0 mi NW 8.1 mph - N/A   Clear
5:13 AM 25.7 °F 17.1 °F 18.5 °F 74% 30.09 in 10.0 mi NW 8.1 mph - N/A   Clear
5:33 AM 25.5 °F 17.8 °F 18.0 °F 73% 30.10 in 10.0 mi NW 6.9 mph - N/A   Clear
5:53 AM 25.0 °F 17.1 °F 18.0 °F 75% 30.11 in 10.0 mi WNW 6.9 mph - N/A   Clear
6:13 AM 24.4 °F 18.6 °F 18.5 °F 78% 30.12 in 10.0 mi WNW 4.6 mph - N/A   Clear
6:33 AM 24.3 °F 18.4 °F 18.1 °F 77% 30.13 in 10.0 mi WNW 4.6 mph - N/A   Clear
6:53 AM 23.9 °F - 18.0 °F 78% 30.13 in 10.0 mi Calm Calm - N/A   Clear
7:13 AM 24.8 °F - 18.1 °F 76% 30.15 in 10.0 mi Calm Calm - N/A   Clear
7:32 AM 25.5 °F 19.9 °F 18.7 °F 75% 30.16 in 10.0 mi NW 4.6 mph - N/A   Clear
7:53 AM 26.6 °F 22.6 °F 18.0 °F 70% 30.17 in 10.0 mi NW 3.5 mph - N/A   Clear
8:13 AM 27.5 °F 22.2 °F 17.6 °F 66% 30.18 in 10.0 mi NW 4.6 mph - N/A   Clear
8:33 AM 28.4 °F 22.2 °F 15.6 °F 59% 30.19 in 10.0 mi North 5.8 mph - N/A   Clear
8:53 AM 28.9 °F 23.9 °F 14.7 °F 55% 30.20 in 10.0 mi North 4.6 mph - N/A   Clear
9:13 AM 29.8 °F - 15.1 °F 54% 30.20 in 10.0 mi Calm Calm - N/A   Clear
9:33 AM 30.4 °F - 14.9 °F 53% 30.21 in 10.0 mi Calm Calm - N/A   Clear
9:53 AM 30.9 °F - 16.3 °F 55% 30.22 in 10.0 mi Calm Calm - N/A   Clear
10:13 AM 31.6 °F - 16.5 °F 54% 30.23 in 10.0 mi Calm Calm - N/A   Clear
10:33 AM 32.0 °F - 17.2 °F 55% 30.24 in 10.0 mi Calm Calm - N/A   Clear
10:53 AM 32.9 °F - 18.1 °F 55% 30.24 in 10.0 mi Calm Calm - N/A   Clear
11:13 AM 33.8 °F - 18.0 °F 52% 30.25 in 10.0 mi Calm Calm - N/A   Clear
11:33 AM 34.7 °F - 14.5 °F 44% 30.25 in 10.0 mi Calm Calm - N/A   Clear
11:53 AM 35.4 °F - 8.6 °F 33% 30.26 in 10.0 mi Calm Calm - N/A   Clear
12:13 PM 36.0 °F 32.1 °F 14.9 °F 42% 30.26 in 10.0 mi WNW 4.6 mph - N/A   Clear
12:33 PM 35.6 °F 32.8 °F 12.4 °F 38% 30.26 in 10.0 mi North 3.5 mph - N/A   Clear
12:53 PM 36.3 °F - 13.3 °F 39% 30.26 in 10.0 mi Calm Calm - N/A   Clear
1:13 PM 37.0 °F 31.0 °F 12.2 °F 36% 30.26 in 10.0 mi WNW 8.1 mph - N/A   Clear
1:33 PM 36.9 °F 32.2 °F 8.6 °F 31% 30.26 in 10.0 mi West 5.8 mph - N/A   Clear
1:53 PM 37.0 °F - 9.1 °F 32% 30.26 in 10.0 mi Calm Calm - N/A   Clear
2:12 PM 37.9 °F 34.4 °F 10.2 °F 32% 30.26 in 10.0 mi SW 4.6 mph - N/A   Clear
2:33 PM 38.1 °F 33.7 °F 12.0 °F 34% 30.26 in 10.0 mi NNW 5.8 mph - N/A   Clear
2:53 PM 38.3 °F 34.8 °F 12.6 °F 35% 30.26 in 10.0 mi NNW 4.6 mph - N/A   Clear
3:13 PM 38.8 °F 35.4 °F 12.4 °F 34% 30.27 in 10.0 mi WNW 4.6 mph - N/A   Clear
3:33 PM 38.8 °F - 11.7 °F 33% 30.26 in 10.0 mi Calm Calm - N/A   Clear
3:53 PM 39.2 °F - 13.1 °F 34% 30.26 in 10.0 mi Calm Calm - N/A   Clear
4:13 PM 40.5 °F 37.3 °F 15.4 °F 36% 30.26 in 10.0 mi NW 4.6 mph - N/A   Clear
4:33 PM 40.8 °F 38.8 °F 15.6 °F 36% 30.26 in 10.0 mi SW 3.5 mph - N/A   Clear
4:53 PM 40.8 °F 37.8 °F 16.5 °F 37% 30.26 in 10.0 mi West 4.6 mph - N/A   Clear
5:13 PM 40.1 °F - 14.9 °F 36% 30.25 in 10.0 mi Calm Calm - N/A   Clear
5:33 PM 40.5 °F - 16.0 °F 37% 30.25 in 10.0 mi Calm Calm - N/A   Clear
5:53 PM 40.8 °F 38.8 °F 17.4 °F 39% 30.25 in 10.0 mi West 3.5 mph - N/A   Clear
6:13 PM 40.3 °F 35.5 °F 18.7 °F 42% 30.25 in 10.0 mi SW 6.9 mph - N/A   Clear
6:33 PM 40.1 °F - 17.2 °F 40% 30.25 in 10.0 mi Calm Calm - N/A   Clear
6:53 PM 40.1 °F 38.0 °F 17.8 °F 41% 30.25 in 10.0 mi ESE 3.5 mph - N/A   Clear
7:13 PM 39.2 °F 35.9 °F 20.1 °F 46% 30.25 in 10.0 mi NE 4.6 mph - N/A   Clear
7:33 PM 38.3 °F 35.9 °F 22.1 °F 52% 30.25 in 10.0 mi NE 3.5 mph - N/A   Clear
7:53 PM 37.4 °F 34.9 °F 22.6 °F 55% 30.25 in 10.0 mi NE 3.5 mph - N/A   Clear
8:13 PM 36.3 °F 31.6 °F 25.5 °F 65% 30.25 in 10.0 mi NE 5.8 mph - N/A   Clear
8:33 PM 35.6 °F 31.7 °F 26.6 °F 70% 30.25 in 10.0 mi ENE 4.6 mph - N/A   Clear
8:53 PM 35.8 °F 31.9 °F 25.2 °F 65% 30.26 in 10.0 mi East 4.6 mph - N/A   Clear
9:13 PM 36.3 °F 33.7 °F 21.9 °F 56% 30.26 in 10.0 mi East 3.5 mph - N/A   Clear
9:33 PM 36.5 °F 33.9 °F 18.9 °F 49% 30.27 in 10.0 mi East 3.5 mph - N/A   Clear
9:53 PM 35.8 °F 33.0 °F 23.2 °F 60% 30.27 in 10.0 mi East 3.5 mph - N/A   Scattered Clouds
10:13 PM 35.6 °F 32.8 °F 23.4 °F 61% 30.27 in 10.0 mi East 3.5 mph - N/A   Mostly Cloudy
10:33 PM 36.0 °F 32.1 °F 21.2 °F 55% 30.27 in 10.0 mi East 4.6 mph - N/A   Overcast
10:53 PM 36.5 °F 31.8 °F 20.3 °F 52% 30.27 in 10.0 mi ESE 5.8 mph - N/A   Overcast
11:13 PM 36.9 °F 33.1 °F 20.7 °F 52% 30.28 in 10.0 mi ESE 4.6 mph - N/A   Overcast
11:33 PM 36.9 °F 34.3 °F 21.4 °F 54% 30.28 in 10.0 mi ESE 3.5 mph - N/A   Overcast
11:53 PM 37.4 °F - 22.1 °F 54% 30.28 in 10.0 mi Calm Calm - N/A   Overcast